Wind_Speed
40 39 39 46 40 32 33 28 27 24 22 22 23 27 23 25 31 32 29 27 23 23 21 19 16 14 13 10 11 11 11 11 14 14 12 10 8 6 6 5 4 7 10
44 45 45 47 42 38 34 33 32 28 26 23 27 30 30 29 33 35 31 30 26 25 23 21 19 15 14 13 12 12 11 13 15 15 13 10 8 6 4 3 2 5 8
50 48 47 49 46 41 38 34 32 29 28 27 28 36 37 37 35 38 34 32 28 27 26 23 21 19 15 14 13 13 12 13 16 17 15 11 9 7 4 3 1 3 5
55 52 52 44 49 42 42 41 37 31 32 29 27 27 33 37 36 40 37 37 31 28 27 25 23 22 18 15 16 14 14 15 17 18 16 13 10 8 6 4 2 1 3
58 59 57 53 52 46 42 42 36 41 35 33 30 29 29 38 43 35 39 37 32 30 28 27 25 24 20 17 17 16 15 16 17 19 18 15 12 10 8 6 5 3 3
62 57 56 58 48 50 48 47 44 39 36 33 31 30 23 41 45 36 39 37 34 31 28 27 27 25 23 19 18 18 16 17 19 19 20 18 15 13 11 9 8 6 6
65 61 56 57 53 49 56 53 42 39 34 37 34 32 26 33 46 41 38 40 36 34 30 28 26 27 26 23 20 18 18 18 19 20 20 20 18 16 13 12 11 10 9
68 63 58 56 60 48 50 35 49 40 34 39 39 34 27 26 40 42 38 43 39 37 33 30 28 27 27 26 24 21 20 20 19 21 21 21 20 18 17 15 14 14 14
73 67 62 55 52 54 54 31 37 45 36 34 32 32 32 24 23 36 34 43 41 39 37 33 31 30 27 28 27 25 23 21 20 21 21 22 22 20 19 18 17 17 17
77 71 65 60 59 51 57 51 33 48 51 35 25 36 33 34 33 33 31 42 43 43 40 37 35 33 31 29 29 29 27 25 23 22 22 22 22 23 22 21 21 20 19
80 74 69 64 59 55 56 59 55 48 55 46 39 30 35 41 34 33 33 42 46 45 43 42 40 37 35 33 31 30 30 29 27 25 24 23 23 24 25 24 24 23 23
79 76 70 65 62 59 61 59 57 58 52 45 45 43 32 41 41 38 32 37 44 51 50 48 45 42 39 36 35 34 34 31 29 29 28 26 25 25 25 25 25 25 25
83 77 70 67 65 62 65 56 55 55 54 47 48 39 40 41 43 44 38 37 37 44 53 53 49 47 43 40 38 37 37 36 34 32 30 29 29 28 28 27 27 27 26
83 78 72 68 66 62 55 52 47 51 54 51 51 40 43 39 48 44 42 40 42 43 40 46 53 50 47 45 42 41 39 39 38 37 35 33 32 31 30 31 31 31 30
85 79 73 70 69 71 55 57 56 47 53 50 47 42 50 47 42 45 44 44 41 44 41 34 42 51 51 50 48 45 43 41 41 40 40 39 37 36 35 35 35 35 34
86 79 72 68 71 68 60 57 62 64 58 49 53 37 36 34 42 40 40 43 42 40 42 43 39 40 47 52 53 50 45 44 44 43 42 43 42 41 40 39 39 39 38
87 79 73 70 71 68 65 62 65 66 54 51 49 45 35 39 34 37 40 38 42 44 44 44 45 46 45 46 52 54 50 48 46 45 45 44 44 44 44 43 43 42 41
85 79 74 70 71 72 68 68 51 66 66 53 36 40 46 41 37 36 37 41 40 40 42 42 47 43 44 45 45 50 52 51 50 48 47 47 46 45 43 44 45 44 45
84 78 75 71 73 73 73 62 64 57 57 52 44 42 39 39 39 35 34 34 41 38 40 43 43 41 42 45 45 48 46 46 47 50 51 49 48 48 48 47 47 48 45
81 79 75 73 72 73 69 72 63 50 53 56 47 43 43 43 41 44 38 30 35 33 24 31 38 41 44 47 47 47 50 54 51 51 53 54 52 54 54 51 51 51 51
74 76 74 73 72 76 71 75 53 66 60 55 51 47 47 42 42 42 43 38 39 36 31 23 32 36 30 32 39 42 43 45 45 48 47 47 50 49 51 52 52 53 53
67 71 73 72 73 71 69 68 74 53 61 62 61 50 44 45 40 42 43 41 36 35 38 36 37 42 43 37 34 34 36 33 32 34 34 36 37 41 43 44 44 43 43
55 64 67 70 71 70 70 64 63 70 69 72 64 53 50 52 47 43 42 41 39 41 43 39 40 42 42 42 39 41 34 33 32 31 33 34 35 37 41 43 43 43 40
31 51 61 65 70 70 71 69 65 65 69 75 77 67 63 63 61 56 55 44 51 45 47 43 47 43 39 48 45 43 45 41 35 34 37 33 33 32 31 32 39 42 41
29 17 44 56 62 68 70 71 70 68 66 71 69 74 74 72 72 66 65 62 63 63 50 51 51 49 50 45 50 45 44 46 42 40 37 37 35 31 27 30 31 31 39
34 33 21 23 50 59 66 70 72 72 70 71 70 70 70 68 72 75 70 68 74 73 61 63 60 61 59 53 58 58 61 62 59 55 54 50 43 39 38 35 37 37 34
Wind_Direction
231 234 227 224 218 217 213 213 214 213 216 213 207 226 208 214 204 205 211 213 209 205 201 201 204 197 197 197 207 214 213 203 193 179 173 166 158 159 136 121 89 67 46
227 235 232 227 213 214 213 214 224 214 214 209 205 219 219 224 212 206 209 214 213 207 201 204 206 206 201 201 210 216 215 209 199 188 184 179 175 184 171 147 92 60 46
224 229 238 233 209 208 205 219 214 212 216 215 210 219 223 219 213 203 207 214 215 211 206 207 209 211 209 204 209 214 215 215 207 198 194 194 192 201 205 199 132 49 35
223 228 235 208 207 205 210 211 221 214 211 211 217 225 220 223 214 202 207 212 213 213 210 209 213 213 214 210 211 213 213 214 213 207 205 205 208 214 226 218 211 335 7
222 223 233 223 197 207 212 216 209 208 212 214 214 225 219 222 218 214 206 206 211 212 211 210 213 216 215 214 216 216 214 214 215 215 215 214 220 226 236 238 240 264 313
221 215 228 234 204 205 210 216 215 209 209 208 216 221 221 219 222 220 205 209 211 209 210 211 214 219 219 216 221 221 219 216 219 218 219 225 229 234 239 246 252 260 279
221 221 223 231 220 206 211 216 209 204 206 214 224 225 219 222 225 224 204 208 212 213 212 215 216 217 221 220 221 226 227 223 222 223 223 229 235 242 245 252 257 266 275
220 218 218 223 234 220 205 216 217 210 209 217 229 225 215 218 221 226 211 207 211 213 215 218 219 219 220 224 223 226 229 230 227 229 228 230 236 244 250 255 261 268 275
221 218 218 216 218 207 203 206 219 221 211 215 217 220 214 210 215 216 230 209 211 216 218 220 222 222 222 227 227 227 230 233 232 232 234 235 239 243 248 254 260 267 275
219 218 217 215 213 224 217 210 211 222 219 216 212 214 218 220 229 226 223 215 217 218 219 223 224 226 225 228 232 229 231 234 235 235 236 237 240 245 248 252 257 264 271
216 217 217 214 215 219 222 218 215 219 227 227 232 221 217 224 226 233 225 224 222 224 223 224 226 227 229 229 231 235 233 232 237 240 242 244 246 247 250 253 258 264 270
213 216 217 215 214 218 222 215 217 222 221 225 231 232 226 224 228 230 237 234 232 226 225 227 228 229 231 232 232 234 238 239 237 242 244 246 247 250 254 257 259 262 267
209 213 214 214 214 217 223 216 219 221 226 226 235 241 241 230 222 225 237 235 244 236 233 231 232 231 232 234 236 236 239 241 243 243 246 250 252 253 255 258 262 264 268
206 210 211 213 211 215 213 210 223 219 227 221 226 238 230 238 228 231 239 237 244 236 235 245 236 235 235 236 238 240 241 243 246 247 248 249 253 257 260 262 263 265 267
204 207 209 212 212 214 213 215 220 209 215 222 221 231 235 240 237 234 239 235 245 238 238 244 237 236 237 238 238 239 241 244 246 248 250 251 251 253 256 259 263 266 269
204 206 208 210 214 215 212 226 231 224 224 218 216 222 222 232 231 238 237 242 241 237 238 240 240 237 239 239 240 241 242 245 247 249 251 253 254 254 257 260 262 265 268
204 205 207 208 213 212 208 219 217 219 217 225 225 223 225 234 224 233 234 234 233 237 240 244 243 243 244 244 241 240 241 246 246 251 252 254 256 256 258 260 262 264 265
205 205 206 208 213 215 217 218 207 227 222 223 213 222 231 237 223 225 229 231 232 237 239 239 240 244 244 240 242 239 244 248 249 250 253 253 255 259 260 263 263 264 267
207 206 206 209 213 217 218 218 219 221 217 213 211 213 225 227 230 222 211 220 225 228 235 236 236 238 244 239 235 240 245 250 250 251 253 253 255 259 263 263 264 265 265
210 209 208 209 213 219 220 213 202 209 208 206 220 224 221 221 226 214 218 208 205 205 219 229 236 242 239 243 240 246 251 249 252 253 254 256 259 263 264 264 265 265 268
211 213 212 212 213 218 220 228 212 214 211 213 225 217 213 215 218 206 210 209 211 211 207 210 218 207 210 222 231 234 233 242 248 257 260 260 261 261 265 263 261 265 268
214 216 215 216 219 220 224 223 230 213 219 215 218 213 208 208 216 216 218 215 219 221 214 214 211 216 222 220 209 212 221 227 233 237 239 246 250 260 261 263 264 264 266
219 221 221 221 223 225 229 227 230 236 241 232 219 214 218 211 215 218 215 220 223 220 221 223 215 218 218 220 217 219 216 214 215 223 228 238 247 255 260 262 262 264 265
226 225 227 227 228 231 232 233 229 233 233 240 239 231 231 228 228 230 229 234 222 233 227 236 237 237 241 233 226 229 225 224 219 219 225 232 237 246 253 260 262 262 262
48 244 236 234 233 236 239 242 242 235 236 241 246 250 250 244 238 242 241 241 240 238 240 246 247 252 252 263 251 247 252 246 246 233 240 237 248 254 255 251 255 256 257
47 48 42 257 245 241 243 245 246 250 247 243 244 247 250 251 254 257 259 253 252 249 248 247 247 254 256 253 258 264 264 262 261 256 262 262 261 265 274 265 254 257 256
Height
5771 5776 5781 5786 5792 5798 5802 5806 5810 5815 5818 5821 5824 5827 5829 5833 5840 5843 5847 5851 5854 5858 5861 5864 5867 5868 5870 5872 5874 5876 5877 5879 5880 5882 5883 5885 5886 5886 5887 5888 5887 5887 5886
5762 5768 5772 5778 5785 5791 5797 5801 5805 5810 5814 5817 5821 5824 5826 5829 5834 5838 5843 5848 5852 5855 5858 5862 5865 5867 5868 5870 5872 5874 5877 5878 5879 5881 5883 5885 5885 5886 5887 5888 5888 5888 5887
5751 5757 5763 5769 5777 5784 5789 5796 5801 5805 5809 5813 5817 5820 5822 5824 5829 5834 5839 5844 5849 5852 5856 5859 5862 5865 5867 5868 5870 5873 5875 5877 5879 5881 5882 5884 5885 5886 5886 5887 5888 5888 5887
5741 5748 5754 5759 5768 5776 5782 5789 5794 5800 5804 5807 5811 5815 5816 5821 5824 5829 5835 5839 5845 5849 5853 5856 5860 5863 5865 5867 5869 5871 5873 5876 5878 5880 5882 5883 5885 5885 5886 5886 5887 5887 5887
5728 5738 5744 5750 5758 5768 5775 5781 5787 5793 5797 5802 5806 5809 5811 5816 5818 5824 5830 5835 5840 5845 5849 5853 5857 5861 5863 5865 5867 5869 5871 5874 5876 5879 5881 5882 5884 5884 5885 5886 5886 5886 5886
5716 5727 5734 5740 5749 5759 5768 5775 5780 5784 5790 5795 5800 5803 5805 5809 5813 5819 5825 5831 5836 5841 5846 5850 5853 5858 5861 5863 5865 5867 5869 5872 5874 5876 5879 5881 5882 5883 5884 5885 5885 5885 5885
5704 5714 5723 5732 5739 5750 5759 5767 5772 5779 5784 5788 5793 5798 5800 5803 5808 5813 5819 5826 5832 5837 5842 5846 5850 5854 5858 5861 5863 5865 5867 5869 5871 5874 5877 5879 5881 5882 5883 5883 5884 5884 5884
5691 5703 5713 5722 5731 5742 5750 5758 5765 5771 5776 5782 5788 5790 5795 5798 5802 5809 5814 5820 5827 5833 5838 5842 5846 5850 5854 5857 5860 5863 5865 5867 5869 5871 5874 5876 5878 5880 5881 5881 5881 5882 5882
5678 5692 5702 5712 5723 5731 5741 5748 5757 5763 5769 5775 5779 5784 5789 5796 5799 5805 5810 5815 5821 5828 5832 5837 5841 5846 5849 5853 5856 5860 5862 5864 5866 5868 5871 5873 5875 5877 5878 5878 5879 5879 5879
5664 5679 5691 5703 5714 5723 5731 5739 5746 5754 5762 5767 5771 5779 5784 5791 5795 5800 5806 5811 5815 5821 5826 5831 5836 5840 5844 5848 5852 5855 5858 5861 5863 5865 5867 5869 5871 5873 5874 5875 5875 5876 5876
5651 5667 5681 5694 5705 5715 5724 5730 5737 5746 5752 5761 5765 5771 5777 5784 5788 5793 5799 5804 5809 5815 5820 5825 5829 5833 5838 5842 5847 5850 5853 5856 5859 5862 5864 5865 5867 5869 5870 5871 5871 5872 5872
5645 5655 5671 5685 5696 5707 5716 5724 5731 5738 5745 5751 5760 5766 5772 5778 5784 5789 5793 5797 5802 5806 5811 5816 5821 5827 5832 5836 5841 5845 5848 5851 5854 5857 5860 5861 5863 5865 5866 5867 5868 5868 5868
5625 5644 5663 5675 5688 5698 5707 5716 5725 5732 5739 5749 5754 5760 5765 5771 5777 5782 5786 5790 5794 5798 5802 5808 5814 5820 5824 5830 5834 5839 5842 5846 5849 5851 5854 5857 5858 5860 5861 5862 5863 5863 5864
5618 5636 5653 5667 5679 5689 5699 5709 5717 5725 5733 5741 5746 5752 5759 5763 5769 5774 5779 5784 5787 5790 5795 5802 5806 5812 5817 5822 5827 5831 5836 5839 5842 5845 5848 5850 5853 5854 5856 5856 5858 5858 5858
5610 5626 5643 5658 5671 5682 5692 5702 5707 5717 5724 5734 5740 5747 5752 5757 5762 5767 5772 5776 5780 5783 5789 5792 5797 5803 5808 5813 5817 5822 5828 5832 5835 5838 5841 5843 5845 5847 5849 5850 5851 5852 5852
5602 5620 5638 5652 5664 5675 5686 5694 5699 5710 5719 5725 5733 5738 5744 5750 5754 5759 5763 5769 5773 5776 5781 5784 5788 5794 5798 5802 5808 5813 5820 5823 5826 5829 5832 5834 5837 5839 5841 5843 5844 5845 5845
5596 5614 5631 5645 5657 5668 5678 5686 5693 5702 5711 5717 5725 5732 5737 5744 5747 5752 5755 5759 5764 5769 5772 5776 5780 5785 5789 5794 5797 5803 5809 5814 5817 5820 5823 5825 5828 5830 5832 5834 5836 5837 5837
5593 5610 5625 5638 5650 5661 5671 5681 5685 5695 5703 5711 5718 5724 5731 5737 5740 5745 5748 5752 5757 5761 5764 5768 5773 5776 5780 5784 5787 5794 5798 5804 5807 5810 5813 5815 5818 5821 5822 5825 5827 5828 5829
5589 5605 5620 5632 5644 5655 5664 5674 5681 5687 5695 5702 5710 5716 5722 5727 5733 5738 5741 5743 5750 5754 5757 5761 5766 5768 5772 5776 5779 5784 5788 5793 5797 5801 5803 5805 5808 5811 5812 5814 5816 5818 5819
5588 5601 5614 5626 5638 5647 5657 5665 5672 5679 5687 5694 5701 5707 5713 5720 5725 5730 5733 5738 5743 5747 5751 5753 5757 5762 5764 5767 5771 5776 5778 5781 5787 5790 5793 5795 5797 5799 5802 5804 5806 5806 5808
5586 5599 5611 5621 5631 5641 5652 5661 5666 5672 5680 5687 5693 5700 5706 5712 5718 5720 5725 5729 5734 5739 5741 5747 5750 5753 5755 5757 5762 5767 5771 5773 5776 5780 5782 5784 5785 5787 5789 5791 5794 5795 5797
5588 5596 5607 5617 5625 5634 5644 5653 5663 5666 5675 5680 5686 5692 5697 5703 5710 5713 5718 5722 5725 5729 5732 5736 5739 5744 5747 5750 5753 5757 5760 5764 5768 5771 5773 5774 5773 5775 5778 5781 5782 5785 5786
5590 5598 5607 5614 5620 5628 5635 5646 5654 5660 5668 5671 5676 5681 5687 5692 5698 5703 5708 5713 5716 5719 5721 5726 5729 5733 5737 5739 5742 5746 5748 5753 5756 5759 5761 5765 5766 5766 5769 5770 5772 5774 5776
5590 5597 5605 5613 5618 5623 5629 5637 5646 5652 5660 5663 5664 5669 5675 5681 5685 5692 5696 5701 5706 5709 5712 5717 5720 5724 5728 5731 5733 5735 5739 5743 5744 5746 5749 5752 5755 5756 5759 5760 5761 5764 5766
5595 5598 5603 5609 5615 5620 5624 5627 5633 5642 5648 5653 5656 5659 5664 5668 5671 5677 5685 5687 5692 5697 5702 5704 5708 5711 5715 5719 5722 5724 5729 5732 5733 5737 5740 5742 5743 5747 5749 5751 5752 5753 5755
5604 5603 5603 5606 5609 5614 5618 5621 5624 5627 5636 5641 5646 5648 5652 5656 5660 5663 5668 5674 5676 5681 5686 5692 5695 5699 5703 5708 5709 5713 5717 5719 5722 5725 5728 5732 5734 5736 5738 5740 5741 5743 5745